Tracking 35274 objects as of 11-Sep-2026
HD Live streaming from Space Station
objects crossing your sky now

FREGAT DEB

Track FREGAT DEB now!
10-day predictions


NORAD ID: 47333
Int'l Code: 2011-037NQ
Launch date: July 18, 2011
Source: Commonwealth of Independent States (former USSR) (CIS)
Launch site: TYURATAM MISSILE AND SPACE COMPLEX (TTMTR)

Note: This is SATELLITE DEBRIS
Your satellite tracking list
Your tracking list is empty




NASA's NSSDC Master Catalog

Two Line Element Set (TLE):
1 47333U 11037NQ  21362.30759130  .00135930  00000-0  13047+0 0  9999
2 47333  51.3599  52.5404 1646883  28.8317 339.4227 11.31341548 40341
Source of the keplerian elements: AFSPC